timestamp,surface_pressure_avg,surface_temp_avg,battery_voltage,lat,long
2020-01-31 00:09:01+00:00,264.3631,0.8,12.73,47.84626,-54.09684
2020-01-31 00:19:01+00:00,267.9831,0.8,12.65,47.84626,-54.09684
2020-01-31 00:29:01+00:00,272.2581,0.8,12.65,47.84626,-54.09684
2020-01-31 00:39:01+00:00,274.7764,0.7,12.65,47.84626,-54.09684
2020-01-31 00:49:01+00:00,277.0648,0.6,12.65,47.84626,-54.09684
2020-01-31 00:59:01+00:00,281.2847,0.86,12.65,47.84626,-54.09684
2020-01-31 01:09:01+00:00,285.4847,0.94,12.65,47.84626,-54.09684
2020-01-31 01:19:01+00:00,290.0764,0.9,12.65,47.84626,-54.09684
2020-01-31 01:29:01+00:00,295.0213,0.7,12.65,47.84626,-54.09684
2020-01-31 01:39:01+00:00,301.0097,0.7,12.65,47.84626,-54.09684
2020-01-31 01:49:01+00:00,304.0013,0.63,12.65,47.84626,-54.09684
2020-01-31 01:59:01+00:00,307.223,0.6,12.65,47.84626,-54.09684
2020-01-31 02:09:01+00:00,309.8879,0.6,12.65,47.84626,-54.09684
2020-01-31 02:19:01+00:00,312.3846,0.62,12.65,47.84626,-54.09684
2020-01-31 02:29:01+00:00,315.3813,0.65,12.65,47.84626,-54.09684
2020-01-31 02:39:01+00:00,316.913,0.64,12.65,47.84626,-54.09684
2020-01-31 02:49:01+00:00,315.3797,0.69,12.65,47.84626,-54.09684
2020-01-31 02:59:01+00:00,316.4612,0.7,12.65,47.84626,-54.09684
2020-01-31 03:09:01+00:00,321.2413,0.8,12.65,47.84626,-54.09684
2020-01-31 03:19:01+00:00,321.8914,0.9,12.57,47.84626,-54.09684
2020-01-31 03:29:01+00:00,318.9397,0.9,12.57,47.84626,-54.09684
2020-01-31 03:39:01+00:00,320.7563,0.95,12.57,47.84626,-54.09684
2020-01-31 03:49:01+00:00,323.6744,1.0,12.57,47.84626,-54.09684
2020-01-31 03:59:01+00:00,321.608,1.0,12.57,47.84626,-54.09684
2020-01-31 04:09:01+00:00,318.8029,1.0,12.57,47.84626,-54.09684
2020-01-31 04:19:01+00:00,320.2863,1.0,12.57,47.84626,-54.09684
2020-01-31 04:29:01+00:00,319.4263,1.0,12.57,47.84626,-54.09684
2020-01-31 04:39:01+00:00,313.8729,1.0,12.57,47.84626,-54.09684
2020-01-31 04:49:01+00:00,313.2681,1.0,12.57,47.84626,-54.09684
2020-01-31 04:59:01+00:00,316.0679,1.0,12.57,47.84626,-54.09684
2020-01-31 05:09:01+00:00,314.9047,1.0,12.57,47.84626,-54.09684
2020-01-31 05:19:01+00:00,309.918,0.9,12.57,47.84626,-54.09684
2020-01-31 05:29:01+00:00,309.0231,0.6,12.57,47.84626,-54.09684
2020-01-31 05:39:01+00:00,308.1597,0.57,12.57,47.84626,-54.09684
2020-01-31 05:49:01+00:00,302.0847,0.58,12.57,47.84626,-54.09684
2020-01-31 05:59:01+00:00,295.7647,0.58,12.57,47.84626,-54.09684
2020-01-31 06:09:01+00:00,292.0814,0.64,12.57,47.84626,-54.09684
2020-01-31 06:19:01+00:00,285.4948,0.69,12.57,47.84626,-54.09684
2020-01-31 06:29:01+00:00,278.5148,0.69,12.57,47.84626,-54.09684
2020-01-31 06:39:01+00:00,273.7314,0.62,12.57,47.84626,-54.09684
2020-01-31 06:49:01+00:00,269.5847,0.6,12.57,47.84626,-54.09684
2020-01-31 06:59:01+00:00,263.5531,0.53,12.57,47.84626,-54.09684
2020-01-31 07:09:01+00:00,257.7747,0.5,12.57,47.84626,-54.09684
2020-01-31 07:19:01+00:00,252.523,0.5,12.49,47.84626,-54.09684
2020-01-31 07:29:01+00:00,246.8031,0.5,12.49,47.84626,-54.09684
2020-01-31 07:39:01+00:00,241.1464,0.5,12.49,47.84626,-54.09684
2020-01-31 07:49:01+00:00,234.2248,0.5,12.49,47.84626,-54.09684
2020-01-31 07:59:01+00:00,227.5481,0.5,12.49,47.84626,-54.09684
2020-01-31 08:09:01+00:00,223.3581,0.5,12.49,47.84626,-54.09684
2020-01-31 08:19:01+00:00,218.8365,0.5,12.49,47.84626,-54.09684
2020-01-31 08:29:01+00:00,212.9348,0.5,12.49,47.84626,-54.09684
2020-01-31 08:39:01+00:00,208.4231,0.5,12.49,47.84626,-54.09684
2020-01-31 08:49:01+00:00,206.7014,0.51,12.49,47.84626,-54.09684
2020-01-31 08:59:01+00:00,203.3598,0.5,12.49,47.84626,-54.09684
2020-01-31 09:09:01+00:00,199.3848,0.5,12.49,47.84626,-54.09684
2020-01-31 09:19:01+00:00,198.2981,0.5,12.49,47.84626,-54.09684
2020-01-31 09:29:01+00:00,199.1915,0.5,12.49,47.84626,-54.09684
2020-01-31 09:39:01+00:00,200.4565,0.5,12.49,47.84626,-54.09684
2020-01-31 09:49:01+00:00,202.7498,0.5,12.49,47.84626,-54.09684
2020-01-31 09:59:01+00:00,204.3365,0.5,12.49,47.84626,-54.09684
2020-01-31 10:09:01+00:00,207.1863,0.56,12.49,47.84626,-54.09684
2020-01-31 10:19:01+00:00,207.583,0.73,12.49,47.84626,-54.09684
2020-01-31 10:29:01+00:00,208.7998,0.9,12.49,47.84626,-54.09684
2020-01-31 10:39:01+00:00,212.6048,0.97,12.49,47.84626,-54.09684
2020-01-31 10:49:01+00:00,216.1598,1.0,12.49,47.84626,-54.09684
2020-01-31 10:59:01+00:00,219.2631,1.0,12.49,47.84626,-54.09684
2020-01-31 11:09:01+00:00,222.8714,1.0,12.49,47.84626,-54.09684
2020-01-31 11:19:01+00:00,227.0048,1.0,12.49,47.84626,-54.09684
2020-01-31 11:29:01+00:00,231.2347,1.0,12.49,47.84626,-54.09684
2020-01-31 11:39:01+00:00,234.5098,1.0,12.49,47.84626,-54.09684
2020-01-31 11:49:01+00:00,237.5247,1.0,12.49,47.84626,-54.09684
2020-01-31 11:59:01+00:00,240.2664,1.0,12.49,47.84626,-54.09684
2020-01-31 12:09:01+00:00,245.0931,0.99,12.49,47.84626,-54.09684
2020-01-31 12:19:01+00:00,251.9631,0.97,14.16,47.84626,-54.09684
2020-01-31 12:29:01+00:00,254.1747,0.98,14.16,47.84626,-54.09684
2020-01-31 12:39:01+00:00,254.7414,0.98,14.16,47.84626,-54.09684
2020-01-31 12:49:01+00:00,258.6297,0.97,14.16,47.84626,-54.09684
2020-01-31 12:59:01+00:00,266.6964,0.99,14.16,47.84626,-54.09684
2020-01-31 13:09:01+00:00,271.153,0.98,14.16,47.84626,-54.09684
2020-01-31 13:19:01+00:00,274.6297,1.0,14.56,47.84626,-54.09684
2020-01-31 13:29:01+00:00,282.3531,1.13,14.56,47.84626,-54.09684
2020-01-31 13:39:01+00:00,291.313,1.2,14.56,47.84626,-54.09684
2020-01-31 13:49:01+00:00,292.898,1.2,14.56,47.84626,-54.09684
2020-01-31 13:59:01+00:00,296.9529,1.2,14.56,47.84626,-54.09684
2020-01-31 14:09:01+00:00,307.0264,1.2,14.56,47.84626,-54.09684
2020-01-31 14:19:01+00:00,311.5013,1.2,14.56,47.84626,-54.09684
2020-01-31 14:29:01+00:00,312.3047,1.2,14.56,47.84626,-54.09684
2020-01-31 14:39:01+00:00,318.2213,1.21,14.56,47.84626,-54.09684
2020-01-31 14:49:01+00:00,323.2864,1.22,14.56,47.84626,-54.09684
2020-01-31 14:59:01+00:00,323.1146,1.23,14.56,47.84626,-54.09684
2020-01-31 15:09:01+00:00,324.233,1.24,14.56,47.84626,-54.09684
2020-01-31 15:19:01+00:00,327.898,1.28,14.24,47.84626,-54.09684
2020-01-31 15:29:01+00:00,326.3713,1.3,14.24,47.84626,-54.09684
2020-01-31 15:39:01+00:00,325.5647,1.35,14.24,47.84626,-54.09684
2020-01-31 15:49:01+00:00,329.3763,1.39,14.24,47.84626,-54.09684
2020-01-31 15:59:01+00:00,330.4963,1.4,14.24,47.84626,-54.09684
2020-01-31 16:09:01+00:00,326.5547,1.4,14.24,47.84626,-54.09684
2020-01-31 16:19:01+00:00,325.95799999999997,1.4,14.4,47.84626,-54.09684
2020-01-31 16:29:01+00:00,330.6796,1.4,14.4,47.84626,-54.09684
2020-01-31 16:39:01+00:00,326.9246,1.4,14.4,47.84626,-54.09684
2020-01-31 16:49:01+00:00,320.08299999999997,1.4,14.4,47.84626,-54.09684
2020-01-31 16:59:01+00:00,320.4529,1.38,14.4,47.84626,-54.09684
2020-01-31 17:09:01+00:00,322.178,1.38,14.4,47.84626,-54.09684
2020-01-31 17:19:01+00:00,317.028,1.39,14.48,47.84626,-54.09684
2020-01-31 17:29:01+00:00,312.8713,1.35,14.48,47.84626,-54.09684
2020-01-31 17:39:01+00:00,311.7347,1.33,14.48,47.84626,-54.09684
2020-01-31 17:49:01+00:00,307.418,1.37,14.48,47.84626,-54.09684
2020-01-31 17:59:01+00:00,299.873,1.4,14.48,47.84626,-54.09684
2020-01-31 18:09:01+00:00,298.5863,1.39,14.48,47.84626,-54.09684
2020-01-31 18:19:01+00:00,295.5313,1.4,14.16,47.84626,-54.09684
2020-01-31 18:29:01+00:00,288.033,1.4,14.16,47.84626,-54.09684
2020-01-31 18:39:01+00:00,281.1848,1.4,14.16,47.84626,-54.09684
2020-01-31 18:49:01+00:00,276.3848,1.38,14.16,47.84626,-54.09684
2020-01-31 18:59:01+00:00,268.0431,1.33,14.16,47.84626,-54.09684
2020-01-31 19:09:01+00:00,259.1231,1.32,14.16,47.84626,-54.09684
2020-01-31 19:19:01+00:00,254.0997,1.36,14.08,47.84626,-54.09684
2020-01-31 19:29:01+00:00,247.8964,1.38,14.08,47.84626,-54.09684
2020-01-31 19:39:01+00:00,240.7931,1.4,14.08,47.84626,-54.09684
2020-01-31 19:49:01+00:00,236.7064,1.4,14.08,47.84626,-54.09684
2020-01-31 19:59:01+00:00,233.9565,1.4,14.08,47.84626,-54.09684
2020-01-31 20:09:01+00:00,229.6198,1.4,14.08,47.84626,-54.09684
2020-01-31 20:19:01+00:00,224.1014,1.39,13.6,47.84626,-54.09684
2020-01-31 20:29:01+00:00,220.3831,1.3,13.6,47.84626,-54.09684
2020-01-31 20:39:01+00:00,219.4581,1.3,13.6,47.84626,-54.09684
2020-01-31 20:49:01+00:00,217.1931,1.3,13.6,47.84626,-54.09684
2020-01-31 20:59:01+00:00,212.0431,1.28,13.6,47.84626,-54.09684
2020-01-31 21:09:01+00:00,208.6565,1.2,13.6,47.84626,-54.09684
2020-01-31 21:19:01+00:00,208.9765,1.2,13.21,47.84626,-54.09684
2020-01-31 21:29:01+00:00,211.7898,1.24,13.21,47.84626,-54.09684
2020-01-31 21:39:01+00:00,213.1248,1.2,13.21,47.84626,-54.09684
2020-01-31 21:49:01+00:00,211.3448,1.2,13.21,47.84626,-54.09684
2020-01-31 21:59:01+00:00,212.0765,1.2,13.21,47.84626,-54.09684
2020-01-31 22:09:01+00:00,216.3398,1.19,13.21,47.84626,-54.09684
2020-01-31 22:19:01+00:00,216.6164,1.2,12.81,47.84626,-54.09684
2020-01-31 22:29:01+00:00,215.6564,1.2,12.81,47.84626,-54.09684
2020-01-31 22:39:01+00:00,219.2931,1.1,12.81,47.84626,-54.09684
2020-01-31 22:49:01+00:00,223.0881,1.13,12.81,47.84626,-54.09684
2020-01-31 22:59:01+00:00,224.2064,1.1,12.81,47.84626,-54.09684
2020-01-31 23:09:01+00:00,226.5547,1.1,12.81,47.84626,-54.09684
2020-01-31 23:19:01+00:00,232.1431,1.0,12.65,47.84626,-54.09684
2020-01-31 23:29:01+00:00,235.5431,0.8,12.65,47.84626,-54.09684
2020-01-31 23:39:01+00:00,235.0547,0.68,12.65,47.84626,-54.09684
2020-01-31 23:49:01+00:00,237.7097,0.63,12.65,47.84626,-54.09684
2020-01-31 23:59:01+00:00,242.8764,0.7,12.65,47.84626,-54.09684
